Photometre #748[NE_1.6] OHP_OBSERVATOIRE AOT

File : 20190924_748.hum

24/09/2019,06:16:06,TEMP=12.1,BA=5.64,STAT.A=0.0,ExtBa=13.30
24/09/2019,06:19:40,TEMP=12.7,BA=5.64,STAT.A=0.0,ExtBa=13.24
24/09/2019,06:23:51,TEMP=13.1,BA=5.60,STAT.A=0.0,ExtBa=13.22
24/09/2019,06:28:50,TEMP=13.3,BA=5.60,STAT.A=0.0,ExtBa=13.23
24/09/2019,06:34:50,TEMP=13.6,BA=5.60,STAT.A=0.0,ExtBa=13.20
24/09/2019,06:42:14,TEMP=14.5,BA=5.64,STAT.A=0.0,ExtBa=13.24
24/09/2019,06:51:36,TEMP=15.6,BA=5.64,STAT.B=0.0,ExtBa=13.28
24/09/2019,07:00:40,TEMP=17.3,BA=5.60,STAT.A=0.0,ExtBa=12.86
24/09/2019,07:02:34,TEMP=17.7,BA=5.60,STAT.A=0.0,ExtBa=12.93
24/09/2019,07:06:47,TEMP=18.0,BA=5.60,STAT.A=0.0,ExtBa=13.03
24/09/2019,07:13:14,TEMP=18.4,BA=5.64,STAT.A=0.0,ExtBa=13.14
24/09/2019,07:20:40,TEMP=18.5,BA=5.64,STAT.C=0.0,ExtBa=13.21
24/09/2019,07:34:51,TEMP=19.5,BA=5.60,STAT.A=0.0,ExtBa=12.89
24/09/2019,07:39:31,TEMP=19.9,BA=5.60,STAT.A=0.0,ExtBa=13.07
24/09/2019,07:51:50,TEMP=21.5,BA=5.64,STAT.A=0.0,ExtBa=13.27
24/09/2019,08:07:01,TEMP=21.5,BA=5.64,STAT.A=0.0,ExtBa=13.36
24/09/2019,08:26:23,TEMP=20.4,BA=5.64,STAT.B=0.0,ExtBa=13.47
24/09/2019,08:29:55,TEMP=20.4,BA=5.64,STAT.F,ExtBa=13.33
24/09/2019,08:44:53,TEMP=20.0,BA=5.64,STAT.D=0.0,ExtBa=13.47
24/09/2019,08:59:54,TEMP=20.4,BA=5.64,STAT.D=0.0,ExtBa=13.49
24/09/2019,09:14:54,TEMP=22.5,BA=5.64,STAT.D=0.0,ExtBa=13.50
24/09/2019,09:29:55,TEMP=23.7,BA=5.64,STAT.F,ExtBa=13.46
24/09/2019,09:47:31,TEMP=23.8,BA=5.56,STAT.D=0.0,ExtBa=13.32
24/09/2019,09:59:54,TEMP=23.2,BA=5.60,STAT.D=0.0,ExtBa=13.42
24/09/2019,10:14:54,TEMP=22.2,BA=5.60,STAT.D=0.0,ExtBa=13.48
24/09/2019,10:29:56,TEMP=21.7,BA=5.60,STAT.F,ExtBa=13.47
24/09/2019,10:44:54,TEMP=22.1,BA=5.60,STAT.D=0.0,ExtBa=13.51
24/09/2019,10:59:54,TEMP=22.6,BA=5.60,STAT.D=0.0,ExtBa=13.51
24/09/2019,11:14:54,TEMP=22.8,BA=5.60,STAT.D=0.0,ExtBa=13.52
24/09/2019,11:29:56,TEMP=22.8,BA=5.60,STAT.F,ExtBa=13.46
24/09/2019,11:44:54,TEMP=22.8,BA=5.60,STAT.D=0.0,ExtBa=13.46
24/09/2019,11:59:54,TEMP=23.5,BA=5.60,STAT.D=0.0,ExtBa=13.45
24/09/2019,12:14:54,TEMP=22.9,BA=5.60,STAT.D=0.0,ExtBa=13.44
24/09/2019,12:29:55,TEMP=22.7,BA=5.60,STAT.F,ExtBa=13.39
24/09/2019,12:44:54,TEMP=22.1,BA=5.60,STAT.D=0.0,ExtBa=13.42
24/09/2019,12:59:54,TEMP=22.4,BA=5.60,STAT.D=0.0,ExtBa=13.41
24/09/2019,13:14:54,TEMP=25.7,BA=5.60,STAT.D=0.0,ExtBa=13.40
24/09/2019,13:29:55,TEMP=25.1,BA=5.60,STAT.F,ExtBa=13.37
24/09/2019,13:44:54,TEMP=23.9,BA=5.60,STAT.D=0.0,ExtBa=13.40
24/09/2019,13:59:54,TEMP=23.2,BA=5.60,STAT.D=0.0,ExtBa=13.38
24/09/2019,14:14:53,TEMP=23.0,BA=5.60,STAT.D=0.0,ExtBa=13.38
24/09/2019,14:29:55,TEMP=23.0,BA=5.60,STAT.F,ExtBa=13.34
24/09/2019,14:33:27,TEMP=23.1,BA=5.52,STAT.B=0.0,ExtBa=13.36
24/09/2019,14:52:49,TEMP=22.4,BA=5.60,STAT.A=0.0,ExtBa=13.35
24/09/2019,15:08:00,TEMP=21.9,BA=5.60,STAT.A=0.0,ExtBa=13.36
24/09/2019,15:20:17,TEMP=22.5,BA=5.60,STAT.A=0.0,ExtBa=13.35
24/09/2019,15:30:29,TEMP=21.8,BA=5.60,STAT.A=0.0,ExtBa=13.35
24/09/2019,15:39:08,TEMP=21.3,BA=5.60,STAT.C=0.0,ExtBa=13.36
24/09/2019,15:46:34,TEMP=21.1,BA=5.52,STAT.A=0.0,ExtBa=13.35
24/09/2019,15:53:01,TEMP=20.8,BA=5.60,STAT.A=0.0,ExtBa=13.35
24/09/2019,15:58:41,TEMP=20.5,BA=5.60,STAT.A=0.0,ExtBa=13.35
24/09/2019,16:03:43,TEMP=20.4,BA=5.52,STAT.A=0.0,ExtBa=13.35
24/09/2019,16:08:12,TEMP=20.3,BA=5.52,STAT.B=0.0,ExtBa=13.35
24/09/2019,16:17:34,TEMP=20.2,BA=5.60,STAT.A=0.0,ExtBa=13.35
24/09/2019,16:24:58,TEMP=20.2,BA=5.60,STAT.A=0.0,ExtBa=13.34
24/09/2019,16:30:58,TEMP=20.1,BA=5.60,STAT.A=0.0,ExtBa=13.33
24/09/2019,16:34:54,TEMP=20.1,BA=5.60,STAT.A=0.0,ExtBa=13.33
24/09/2019,16:37:09,TEMP=20.3,BA=5.60,STAT.A=0.0,ExtBa=13.18
24/09/2019,16:40:08,TEMP=20.3,BA=5.52,STAT.A=0.0,ExtBa=13.06
24/09/2019,16:43:42,TEMP=20.1,BA=5.52,STAT.A=0.0,ExtBa=13.13